Theta_e
354 353 352 352 351 352 353 351 353 353 353 353 353 354 353 353 354 354 354 350 350 353 353 350 351 351 352 352 350 348 348 347 353 351 348 348 353 349 348 345 352 353 348
353 354 353 352 353 352 351 352 351 350 352 353 352 354 353 353 353 352 351 353 354 353 350 353 352 353 352 350 351 354 354 352 351 350 350 349 349 353 350 349 354 351 347
354 355 354 355 353 354 353 351 354 352 352 354 355 354 355 353 352 353 353 351 353 354 353 353 352 349 352 350 349 352 351 351 352 348 350 353 352 348 350 353 352 351 345
354 355 354 353 354 354 353 353 352 352 352 353 353 353 356 354 354 354 352 353 352 353 354 353 351 352 349 348 351 351 351 352 350 351 350 349 349 350 346 350 350 345 340
355 355 355 354 354 353 353 353 353 353 353 353 354 354 354 354 355 353 352 353 353 353 353 353 355 351 351 351 352 352 350 350 351 348 348 349 350 349 350 351 350 350 349
356 357 357 354 354 354 353 352 352 353 354 354 353 354 354 354 353 349 351 351 350 350 349 349 349 351 351 350 350 350 347 347 349 349 350 349 347 347 349 347 346 349 349
357 357 357 357 356 356 356 356 356 355 355 354 355 354 354 354 353 350 349 347 351 353 352 352 352 348 346 349 350 346 343 348 347 347 348 347 349 353 347 347 349 350 350
356 356 356 357 358 356 356 357 353 355 355 354 354 354 353 352 352 351 348 346 347 349 351 352 353 353 351 348 347 348 349 350 348 345 345 348 345 341 341 348 348 347 347
356 356 356 357 357 356 358 358 355 353 354 353 353 353 352 348 347 343 344 345 347 348 351 350 348 346 347 346 343 344 344 349 344 338 337 334 330 332 338 340 337 341 343
356 356 355 354 355 356 353 353 353 353 352 348 344 343 344 343 343 343 342 343 345 348 346 342 341 337 337 339 340 341 344 345 339 336 336 336 334 331 330 329 327 329 330
350 349 350 351 352 350 351 350 349 347 344 341 339 337 339 338 339 339 338 339 341 341 340 337 336 336 338 337 336 336 339 341 337 335 337 331 327 326 319 315 312 312 320
344 341 346 347 345 345 344 342 341 342 340 335 331 329 333 336 337 336 336 337 338 338 336 332 328 326 326 325 325 330 338 338 334 335 329 325 325 325 322 316 313 312 312
345 343 343 341 341 338 336 334 333 333 332 328 328 330 327 329 330 330 332 333 334 332 330 326 325 325 324 324 325 326 328 331 331 329 326 323 323 324 315 316 318 318 313
337 335 337 337 335 335 334 332 331 330 329 327 326 326 328 327 326 327 326 326 326 326 324 324 325 325 325 325 324 324 324 324 325 324 323 321 318 318 315 311 309 309 312
334 333 332 329 330 331 331 330 328 330 331 331 330 327 326 324 322 323 325 327 328 326 325 325 324 324 324 323 322 321 321 322 321 319 317 314 311 311 311 310 310 311 311
329 329 330 329 328 327 327 326 326 327 327 327 324 323 322 320 319 314 314 317 320 322 325 327 325 322 322 321 320 320 319 319 318 317 317 316 315 314 311 310 310 311 312
332 331 331 330 328 328 327 325 322 322 321 321 318 312 308 309 313 313 312 310 310 314 320 321 322 320 320 318 318 317 316 315 314 314 313 311 309 308 307 309 309 310 312
332 332 333 332 332 331 329 328 325 324 323 318 313 314 317 320 320 320 319 316 317 317 317 320 320 319 318 318 316 315 314 312 311 310 309 309 309 309 309 310 309 309 309
324 324 323 321 319 319 318 318 318 318 322 323 318 319 321 320 319 314 307 309 317 317 317 317 317 318 317 316 315 314 312 311 310 309 308 308 308 307 308 307 306 305 304
321 320 321 320 319 321 320 319 320 319 318 317 317 314 310 307 310 314 313 312 313 313 314 316 317 317 317 316 314 313 312 308 308 307 307 306 305 304 304 304 304 304 305
317 317 319 321 322 321 321 321 320 319 319 318 318 316 315 315 314 314 317 317 316 316 316 316 317 316 316 315 314 312 310 309 307 305 305 304 303 304 304 304 304 304 304
318 317 318 318 318 317 318 318 317 317 317 317 317 316 315 314 313 312 313 315 315 315 315 316 316 315 315 314 313 312 311 309 307 306 305 304 304 304 304 304 304 304 305
321 320 320 320 319 319 318 318 318 318 317 317 317 316 314 314 315 313 313 315 315 315 314 314 315 314 313 312 311 310 309 308 306 305 305 305 304 304 304 304 305 305 305
322 321 322 322 322 321 320 320 319 319 318 318 317 316 315 315 315 315 315 315 315 315 314 313 312 312 311 310 309 308 307 306 305 304 304 304 304 304 303 305 305 305 305
322 322 322 321 320 320 320 319 318 317 317 317 317 317 317 316 315 315 315 314 315 314 314 313 312 311 310 309 308 306 304 304 303 303 303 304 305 304 305 304 305 304 304
321 319 316 314 312 311 311 311 311 311 311 311 311 312 314 316 316 314 314 314 313 313 313 312 312 311 309 308 307 305 304 302 300 298 303 304 304 304 304 305 304 304 304
Wind_Speed
25 27 23 21 19 14 11 10 11 10 5 4 3 6 6 8 8 7 12 15 9 7 8 8 9 9 10 14 17 16 16 11 8 16 12 8 3 6 6 7 6 4 5
26 25 23 23 22 20 18 15 16 15 11 11 11 8 12 11 10 11 12 11 11 12 12 11 11 11 9 10 14 14 15 18 16 14 19 16 15 3 5 3 2 6 4
24 24 24 22 22 21 21 20 17 17 16 13 12 13 13 13 13 13 11 12 13 13 12 13 12 13 12 9 12 15 13 9 10 2 17 17 3 4 7 8 6 6 6
26 25 25 24 22 19 18 19 19 17 17 17 16 15 14 14 14 15 15 15 15 15 14 12 12 10 11 11 12 11 13 13 12 8 13 18 16 9 10 5 5 0 9
26 24 25 23 21 21 17 16 17 17 18 18 17 16 16 15 13 18 18 14 12 14 15 12 11 11 10 6 7 7 9 13 14 16 16 16 11 4 6 7 4 6 6
24 22 21 22 21 19 19 17 18 17 17 17 18 16 15 15 18 7 4 10 11 13 14 16 16 14 13 14 11 11 12 15 19 15 15 17 15 12 10 8 6 5 1
23 22 22 21 20 17 15 15 16 17 16 16 16 14 13 15 16 11 9 6 7 10 11 13 14 12 13 9 9 9 9 14 13 14 15 16 16 10 9 8 6 7 6
21 19 18 19 16 15 15 15 16 15 15 16 16 15 11 14 12 10 10 8 7 7 9 8 7 5 7 9 9 8 8 11 9 6 8 8 9 9 8 7 9 8 6
18 17 16 15 13 12 10 9 9 12 16 13 14 13 13 10 6 3 4 4 4 4 3 4 4 4 5 8 8 8 7 9 5 5 5 5 9 6 6 4 9 11 6
15 13 10 8 4 3 3 3 2 2 3 7 6 7 9 6 5 6 3 2 5 3 1 3 4 6 8 9 8 6 9 6 3 2 5 8 6 7 8 11 13 14 10
14 13 10 9 9 6 8 7 7 7 5 4 5 5 5 3 1 3 3 3 3 3 3 6 7 9 10 11 8 7 6 6 7 5 5 10 9 10 14 17 17 17 13
8 9 9 10 7 7 5 2 2 3 3 4 7 8 7 4 0 0 2 2 2 1 1 2 3 6 7 5 4 3 2 4 7 8 9 8 7 8 9 10 11 12 12
16 21 23 19 15 12 13 12 12 10 8 8 10 13 10 9 6 4 4 4 4 3 2 4 4 5 5 6 3 2 0 2 2 3 5 3 3 3 2 2 4 5 2
21 19 20 17 18 17 14 13 12 11 10 7 8 11 11 8 5 6 7 6 6 5 4 3 3 4 2 3 3 2 2 2 1 3 4 3 1 2 4 3 2 1 2
16 15 14 13 14 15 15 14 7 8 7 3 4 6 9 7 5 4 3 2 3 3 6 5 3 3 4 3 2 3 4 4 2 1 1 1 1 2 4 4 2 3 7
17 14 14 14 13 12 13 12 9 9 8 7 7 6 7 5 6 5 3 2 2 4 2 3 3 3 2 2 2 1 4 1 3 3 4 3 5 3 1 2 3 6 5
15 14 12 12 13 13 13 12 11 9 8 6 6 6 7 9 7 6 4 3 3 3 3 1 2 2 1 2 1 4 2 2 2 2 3 5 2 5 2 7 2 5 2
13 13 12 12 13 13 10 13 11 11 9 7 7 6 6 4 3 2 1 1 1 1 1 2 0 2 2 3 2 2 1 2 1 1 1 1 1 1 3 2 6 6 9
13 11 12 11 9 10 8 7 10 7 10 10 7 6 5 4 4 5 5 5 4 7 8 8 5 7 7 5 3 1 3 2 4 2 2 3 2 2 4 7 6 4 2
9 7 9 10 6 6 6 4 8 8 6 11 12 14 8 3 5 7 5 3 3 6 7 2 2 2 4 2 3 3 3 4 2 1 1 0 2 1 1 1 1 0 1
8 4 2 6 8 3 1 2 3 2 4 6 6 10 6 3 6 10 7 6 3 4 4 0 3 3 2 3 3 5 4 4 4 3 3 2 2 3 2 3 2 1 2
12 10 7 5 7 3 4 4 3 4 4 5 2 10 8 6 6 8 12 6 5 2 2 1 1 2 5 6 5 6 8 7 6 4 3 3 4 4 4 4 3 4 5
6 9 11 7 8 3 5 5 6 5 5 5 7 3 9 10 8 8 11 10 6 5 3 3 3 5 4 5 5 6 6 6 5 4 4 5 5 6 5 5 5 5 4
5 3 2 8 7 2 5 7 9 4 7 7 7 8 11 12 10 11 9 10 10 11 11 9 7 5 4 5 5 5 5 4 3 1 4 4 5 1 5 5 2 2 5
7 6 2 2 5 1 4 4 8 10 12 12 8 8 12 14 12 14 14 11 3 7 9 9 8 6 5 4 5 5 4 7 5 3 1 2 2 2 4 3 4 7 2
3 1 4 5 6 9 9 10 11 12 13 15 15 15 13 16 13 12 13 13 8 5 7 12 12 10 6 6 8 6 6 6 8 7 6 2 1 1 2 1 1 1 2
Wind_Direction
196 189 198 200 212 225 218 234 231 263 269 177 224 240 240 237 239 259 272 278 280 276 276 298 297 305 306 310 320 331 323 347 341 321 340 342 341 13 303 359 335 247 111
195 192 193 200 201 208 219 225 230 241 238 251 254 252 248 257 263 262 260 268 284 272 275 275 272 273 291 296 296 308 342 320 352 335 331 323 316 262 308 3 138 145 123
191 187 191 197 207 210 213 216 224 226 232 235 244 246 245 244 254 253 249 255 266 270 273 271 270 270 266 278 294 297 308 326 311 203 281 305 308 299 320 302 207 180 168
184 190 193 197 206 213 219 214 219 224 229 232 238 244 240 249 249 250 249 248 252 262 268 283 282 298 283 285 292 289 311 323 318 309 305 305 318 291 266 267 141 206 177
182 190 194 197 205 211 221 222 221 224 230 231 235 240 248 241 249 247 253 258 258 259 265 273 288 284 286 296 262 284 293 302 302 311 303 304 342 320 313 287 47 197 208
181 183 186 195 204 210 217 219 225 227 227 232 233 232 232 236 247 264 230 239 266 262 264 272 277 277 277 280 288 289 289 289 278 281 284 297 310 311 294 315 334 351 251
183 181 185 187 194 206 210 213 219 225 232 233 234 239 236 235 252 256 263 260 266 270 272 277 285 276 278 285 286 286 302 294 276 273 286 288 297 305 306 314 306 285 256
180 186 187 186 190 200 211 224 233 235 237 236 238 234 230 226 232 241 250 246 255 282 290 294 290 316 286 282 269 280 291 273 268 296 290 296 311 320 312 289 287 279 247
172 178 188 188 185 205 218 227 246 251 251 248 253 229 213 202 189 223 233 251 283 264 296 262 290 282 300 285 291 287 287 271 299 331 320 10 38 357 333 335 15 343 293
164 159 169 183 165 175 202 216 209 258 212 163 137 150 160 171 192 229 242 284 45 62 37 18 347 347 338 309 307 295 290 274 225 6 78 64 73 33 39 46 39 38 26
123 118 123 128 122 129 128 122 114 115 129 125 140 146 147 160 246 240 261 264 235 217 249 292 315 317 311 307 310 319 325 286 178 180 163 133 97 64 53 45 42 50 63
154 162 160 131 140 123 125 89 100 96 128 142 136 123 112 105 219 234 188 211 186 254 261 302 41 42 6 354 346 6 343 187 183 172 146 107 66 38 35 38 47 44 31
146 120 110 112 110 95 94 94 96 104 113 127 137 123 97 88 80 79 82 101 126 138 141 135 101 73 41 2 16 32 193 229 221 144 115 112 77 50 26 342 325 329 328
117 119 113 109 103 99 91 92 91 98 115 126 130 122 110 97 76 73 64 77 95 99 105 96 79 73 52 20 11 19 66 93 123 142 152 146 192 295 304 322 8 344 292
105 104 109 112 117 118 118 109 117 141 138 157 145 137 128 145 171 156 144 173 128 108 91 72 65 99 113 97 45 59 71 68 72 59 6 350 44 43 36 28 4 295 261
115 115 116 110 114 110 112 117 128 134 143 161 159 149 143 154 153 135 134 150 135 134 142 178 134 102 99 71 40 6 65 21 27 18 348 336 325 289 294 292 319 324 33
115 119 128 128 129 134 145 138 127 124 125 129 128 126 127 131 129 126 122 110 125 155 327 197 131 142 155 178 118 99 85 318 39 344 3 33 25 16 13 354 4 337 332
127 135 152 150 159 161 157 144 146 149 150 138 141 142 148 153 150 126 30 6 328 287 323 360 330 221 229 209 213 221 103 349 340 44 134 47 7 18 303 301 75 33 32
147 145 137 127 138 132 137 145 114 115 127 139 158 178 181 205 237 254 256 237 256 296 247 211 200 229 217 200 222 167 180 214 183 197 57 175 142 10 82 76 69 55 57
106 114 118 122 151 154 161 153 129 144 162 191 202 173 156 187 253 241 210 156 236 282 291 249 241 197 170 164 182 220 237 257 237 206 345 339 247 293 329 318 348 259 262
124 126 128 176 176 138 67 136 184 186 192 195 199 147 164 192 308 313 249 191 250 303 328 134 100 136 197 200 221 245 254 243 220 242 231 256 234 223 237 239 239 263 289
159 163 188 148 106 121 31 15 328 300 299 306 20 178 208 226 259 274 283 226 245 214 317 315 188 226 224 229 224 248 259 243 220 209 236 246 244 241 241 251 257 242 233
207 174 169 176 150 173 220 235 235 255 285 315 323 173 201 221 234 241 258 243 218 184 204 225 241 249 250 260 266 272 279 299 247 234 244 237 247 252 246 255 236 251 124
316 215 184 152 161 242 328 320 304 259 259 273 269 267 283 296 289 281 260 254 216 196 199 206 221 239 251 242 266 267 240 229 137 275 250 298 281 313 258 276 282 51 70
304 350 340 264 152 256 290 247 312 344 331 325 317 314 314 303 309 326 345 358 258 216 212 214 214 220 219 231 263 237 206 217 200 194 148 285 289 44 325 348 79 85 9
238 274 24 4 4 21 7 354 347 341 333 331 333 336 320 293 266 269 276 280 298 296 270 227 218 199 187 183 228 245 257 261 252 241 187 175 263 212 234 195 146 353 178